Presure
200 227 191 205 241 243 240 245 250 241 240 211 202 185 195 189 199 194 221 238 219 199 194 191 188 190 192 189 188 191 186 181 183 191 177 187 187 186 180 184 188 185 203
130 211 239 251 241 179 212 260 242 267 229 211 203 184 187 195 188 198 193 206 216 227 253 199 190 189 188 188 135 138 185 188 183 187 188 189 181 181 180 191 183 188 202
240 191 246 247 246 268 258 231 263 262 223 209 201 183 188 187 185 187 192 185 201 202 216 216 231 239 229 218 195 192 191 186 184 183 182 176 172 183 181 184 204 201 201
255 256 267 287 265 259 234 293 264 237 217 184 200 180 195 183 191 190 188 191 215 187 185 206 206 211 209 212 224 240 240 239 232 226 223 214 209 209 209 206 203 204 201
281 170 263 265 245 265 277 248 236 227 214 182 198 187 190 181 181 185 189 189 193 185 178 192 188 200 199 207 205 205 210 203 203 199 197 198 198 195 201 197 195 198 201
250 278 238 273 263 276 242 234 227 222 211 189 193 188 184 187 187 183 188 202 182 186 175 172 198 186 184 194 191 186 203 195 195 209 206 201 202 212 210 206 207 206 198
279 281 265 259 265 240 227 222 212 218 203 194 186 190 183 188 184 184 186 174 180 187 189 185 191 193 189 175 190 186 190 194 192 187 187 192 205 206 200 194 191 191 193
197 263 255 259 240 227 224 215 211 204 199 192 190 183 177 185 184 183 166 185 183 182 184 183 184 193 189 192 188 187 187 189 184 196 192 182 190 198 196 189 198 199 195
244 248 256 238 233 218 216 212 180 204 199 195 189 189 189 182 185 193 194 193 190 183 182 193 180 185 182 186 190 190 194 189 193 194 194 206 192 189 184 188 200 190 195
240 236 240 240 220 221 206 210 213 184 201 201 194 191 185 188 174 191 196 193 192 185 184 190 162 183 191 193 180 191 190 194 198 186 193 194 191 204 197 184 200 193 196
213 239 224 204 213 212 201 204 200 208 200 197 193 191 191 187 198 194 163 172 187 186 187 194 184 192 177 188 188 193 195 195 202 189 193 189 193 185 200 195 198 202 185
203 233 232 218 243 191 210 208 194 202 200 201 188 181 199 181 195 178 189 194 196 187 193 173 193 192 188 187 197 200 184 193 199 200 196 176 196 182 200 198 194 194 195
206 212 235 213 210 221 197 188 212 205 199 200 201 192 195 198 191 185 205 176 185 189 200 208 203 161 211 185 189 194 195 205 203 204 190 182 191 194 197 189 185 204 206
226 220 222 236 212 203 198 183 210 207 206 202 206 192 202 198 204 187 205 179 216 198 189 183 170 196 195 189 188 197 207 200 195 198 184 188 203 203 193 186 196 185 214
214 209 196 220 207 194 196 195 201 197 191 204 200 206 200 187 194 193 190 194 195 184 192 179 201 221 192 193 205 200 207 202 181 195 204 201 202 196 195 212 209 198 210
210 211 224 202 224 226 210 203 205 199 215 191 206 205 200 212 201 196 196 209 195 195 191 215 201 206 203 202 199 206 211 194 209 211 191 192 210 228 225 210 213 225 204
211 218 205 213 221 231 223 215 204 205 201 214 212 204 215 218 206 207 182 199 204 202 194 198 211 202 202 210 212 191 212 201 214 215 212 224 212 216 226 224 216 231 232
227 217 213 224 216 217 204 212 211 212 205 214 212 208 206 211 207 206 205 209 213 216 218 201 204 213 201 198 207 214 215 214 219 220 210 213 228 222 220 232 221 222 250
238 217 224 228 214 220 224 224 217 218 226 223 217 214 215 221 216 209 219 218 214 201 205 209 214 218 219 216 216 221 218 209 213 220 216 226 231 226 223 232 236 241 239
236 232 244 226 235 226 225 240 227 229 226 221 219 225 225 228 224 225 213 215 217 215 215 213 213 214 214 214 224 224 227 233 236 236 234 221 220 230 226 234 255 255 244
242 247 238 251 238 237 237 235 237 238 223 218 221 223 223 230 227 227 227 230 229 229 230 229 233 238 238 231 235 235 237 227 232 212 229 225 234 244 243 255 260 241 255
281 268 256 252 262 240 247 239 239 237 237 233 234 237 239 240 240 245 238 241 238 228 226 230 236 233 237 224 213 210 227 235 242 238 238 231 240 264 273 251 235 263 261
311 296 275 291 279 240 244 247 248 244 249 250 251 252 252 251 252 243 243 240 237 241 239 241 225 224 236 234 237 242 244 240 239 247 259 265 262 246 266 283 285 291 290
285 297 312 317 302 256 281 287 283 281 281 278 267 265 264 263 258 251 249 249 249 251 252 253 253 253 248 217 257 257 260 283 270 270 267 285 297 255 284 290 326 326 334
341 347 352 318 294 292 311 322 312 292 272 266 285 286 285 282 273 276 257 258 266 256 268 256 257 258 284 247 270 277 251 285 290 300 313 292 281 275 336 331 320 315 308
329 323 327 332 337 341 345 333 326 300 290 286 289 315 307 311 309 303 285 269 279 277 281 292 292 295 299 305 316 312 303 292 281 316 345 337 330 321 315 311 310 307 333
Wind_Speed
74 81 65 60 68 58 55 47 38 39 45 45 42 32 32 29 24 21 23 17 35 34 37 42 39 41 44 43 45 47 48 51 52 58 54 64 62 58 57 64 68 61 74
48 64 69 60 59 42 47 41 41 44 49 47 43 33 33 33 30 26 25 26 27 30 28 50 44 46 45 48 39 40 50 56 52 62 65 66 64 65 63 74 66 78 78
78 60 63 57 54 51 41 40 42 49 52 48 42 34 36 35 35 33 32 30 29 29 26 35 29 34 53 61 68 70 70 60 61 63 61 54 59 70 63 73 74 79 78
62 61 58 49 42 39 40 34 43 51 52 38 44 38 38 38 37 39 37 33 29 30 32 30 32 34 38 40 37 33 38 43 55 66 67 75 78 77 72 73 73 74 72
50 50 41 39 40 40 36 41 49 52 52 40 45 42 42 42 43 43 42 37 38 33 39 34 35 34 36 36 39 39 40 45 45 49 52 54 57 60 62 64 66 67 67
36 35 33 37 39 37 44 49 53 51 50 45 46 45 44 49 48 47 47 42 36 37 46 44 37 40 43 40 40 42 40 44 46 46 50 55 58 56 59 63 64 64 66
33 34 34 35 37 48 49 51 47 50 50 50 48 50 50 54 53 52 48 44 44 44 44 47 46 46 47 49 46 47 44 45 49 50 53 52 52 55 59 60 62 63 64
36 32 34 38 48 53 53 54 53 52 54 53 53 54 49 56 56 54 45 50 49 50 51 52 53 52 52 52 51 52 53 53 54 53 55 59 57 58 59 65 63 64 66
25 30 32 43 48 54 56 56 47 54 56 59 58 61 61 58 60 63 60 58 56 55 57 56 58 60 57 57 58 58 59 57 57 57 58 60 61 62 66 67 68 71 71
33 35 37 40 49 55 54 55 56 51 58 61 65 65 61 65 53 62 65 62 59 59 63 63 49 65 67 67 55 62 62 63 63 61 62 65 66 68 66 70 73 74 74
33 40 43 45 51 57 56 60 61 64 63 66 68 68 67 65 74 72 56 60 61 64 67 71 69 71 63 70 70 70 70 66 69 67 69 68 72 70 74 74 76 78 78
45 43 50 48 52 55 46 64 63 68 69 72 65 61 76 64 78 62 70 74 75 71 74 59 74 75 73 76 79 76 70 73 72 74 74 65 75 70 80 81 80 84 88
58 52 52 57 61 56 63 59 67 76 77 77 78 75 79 81 78 73 78 64 70 72 81 84 84 53 80 75 76 78 79 81 80 80 77 72 82 84 88 79 77 96 98
56 53 56 55 64 69 70 66 67 79 77 78 78 74 86 86 86 79 84 65 81 83 71 71 66 81 79 74 80 86 87 83 81 86 78 82 92 91 88 81 93 83 105
59 57 59 66 74 72 74 76 79 80 72 75 87 85 72 77 90 91 86 93 91 73 81 75 89 90 81 85 92 89 92 90 75 85 95 94 97 95 92 107 102 101 108
73 74 82 71 76 81 87 85 87 86 84 82 92 94 92 90 95 96 99 98 95 88 77 102 89 97 93 91 91 99 100 84 100 100 86 90 109 113 105 104 108 107 105
76 87 74 79 82 79 86 90 86 91 87 90 95 91 97 96 102 102 72 102 104 100 93 96 103 97 96 104 105 79 107 96 110 113 107 116 103 107 111 109 105 120 121
99 88 82 93 86 85 79 95 96 95 91 97 100 100 103 105 104 105 107 109 110 111 112 100 104 111 93 90 105 115 115 112 122 119 106 109 124 115 111 123 114 117 130
109 82 96 104 86 88 95 100 101 103 103 111 111 106 107 110 111 104 112 115 115 104 109 111 118 123 124 122 120 126 118 105 111 123 114 123 123 118 115 128 134 131 126
103 96 116 101 113 100 97 113 109 110 108 105 107 114 114 116 115 116 107 110 117 116 117 115 114 115 117 115 128 128 131 133 133 129 127 114 111 130 120 127 139 133 125
101 116 106 124 107 108 107 113 114 119 101 93 100 110 111 125 121 122 122 128 125 125 126 125 128 131 131 131 132 130 130 118 125 96 123 118 122 135 139 138 135 117 133
117 116 118 125 132 121 127 114 116 115 116 110 115 123 124 124 129 135 129 130 131 120 116 122 125 124 131 112 99 97 121 131 140 129 128 121 131 143 141 129 110 134 120
100 112 110 124 125 110 118 119 129 121 127 134 139 139 138 134 131 127 132 129 125 134 131 134 111 111 128 129 134 139 138 133 130 136 139 142 136 124 130 135 128 128 126
93 97 101 107 115 101 128 135 136 138 140 141 136 140 140 141 140 134 131 133 134 137 138 141 143 143 139 96 139 144 142 145 143 137 131 139 138 115 131 129 114 111 105
82 83 84 99 102 107 111 116 126 122 113 115 140 143 143 143 136 144 126 131 143 135 146 140 136 131 137 116 133 135 122 140 140 135 131 131 129 121 108 107 109 110 111
87 88 90 91 93 94 96 103 106 116 119 121 123 121 129 131 133 137 125 119 128 128 132 141 140 140 139 137 132 129 129 129 127 121 108 107 108 110 112 112 112 113 107
Wind_Direction
271 277 277 274 280 277 272 269 251 244 223 232 240 254 260 262 266 258 252 239 241 244 246 258 258 258 261 258 260 266 260 262 269 279 270 280 281 281 278 285 289 288 295
271 276 276 272 272 270 267 253 242 233 222 230 236 249 255 259 264 264 260 257 246 240 247 254 258 263 268 271 270 275 276 278 277 276 279 280 280 279 282 291 289 292 287
273 266 269 266 267 261 246 238 235 219 221 231 236 246 249 255 259 261 260 259 258 255 253 253 253 256 253 259 266 271 273 275 276 278 276 271 278 284 287 289 284 284 286
266 266 265 257 245 239 234 227 215 216 221 247 235 249 245 254 257 260 259 257 260 260 258 262 258 256 256 257 261 265 264 265 267 268 271 270 273 276 276 277 280 280 283
260 270 249 234 234 228 214 214 213 216 221 246 236 243 246 253 255 259 260 257 263 253 262 261 260 261 260 265 264 266 265 266 266 269 270 269 269 272 273 274 276 280 281
249 249 236 210 217 220 201 211 215 217 224 238 239 244 249 250 256 260 263 261 252 260 262 265 269 264 263 266 264 264 268 266 270 272 272 273 275 277 276 277 278 281 285
246 219 205 211 202 194 207 215 222 220 227 233 242 244 251 249 254 261 266 261 261 265 266 266 270 268 265 267 271 269 272 274 272 271 274 278 281 279 278 278 279 280 281
251 214 213 202 197 207 211 218 222 224 227 234 238 245 256 254 255 257 262 266 266 268 267 268 270 277 272 274 273 273 273 272 272 278 277 276 279 282 280 280 284 285 284
233 224 222 204 205 219 218 226 243 230 233 236 243 246 250 260 262 256 257 259 260 266 269 271 272 274 273 271 273 275 278 277 279 278 279 283 279 279 279 283 288 289 291
234 225 216 211 218 219 235 234 234 247 236 238 243 250 258 257 261 262 258 262 266 266 267 267 272 272 275 277 274 276 277 280 282 278 282 281 284 286 284 284 287 284 285
231 233 220 223 233 227 237 236 242 240 242 243 247 251 255 266 257 262 264 267 264 266 266 266 271 271 280 277 280 280 282 283 284 283 285 285 285 285 287 286 289 292 284
234 231 226 221 222 235 245 240 246 244 247 245 255 261 254 264 263 263 265 266 265 265 266 274 266 266 273 277 278 279 283 281 279 280 281 279 286 281 289 290 288 291 291
241 233 223 224 229 221 233 246 252 247 248 250 252 259 258 260 264 269 263 269 267 267 268 268 272 271 273 277 279 281 283 284 283 284 284 283 286 287 287 285 285 289 288
226 225 223 222 220 225 238 250 237 243 247 248 253 258 255 258 261 269 269 269 272 268 272 275 272 273 273 276 280 279 279 281 282 283 281 283 287 286 285 284 287 285 287
223 237 250 231 225 243 241 242 238 246 253 255 250 251 258 262 258 263 267 267 270 279 274 270 274 273 277 277 276 278 279 281 278 281 285 285 285 283 285 285 285 287 285
241 240 225 243 230 225 232 239 238 249 244 256 249 252 255 250 254 260 263 259 271 273 272 266 274 273 275 276 278 279 280 279 283 284 282 282 284 286 283 284 284 287 285
243 239 250 243 236 230 231 235 249 248 252 243 246 254 250 250 256 257 269 267 265 270 276 276 271 273 277 278 278 277 282 282 282 282 282 288 285 285 289 289 286 292 292
230 245 247 236 239 239 243 239 245 248 257 249 253 255 256 255 257 258 262 264 263 263 264 273 275 274 278 278 280 279 280 282 283 284 285 286 286 286 288 290 288 290 292
230 251 243 241 254 250 242 240 239 243 244 246 250 255 257 254 256 261 258 258 261 270 271 271 271 271 272 275 278 279 280 283 285 286 284 284 287 286 288 289 291 290 289
241 244 234 245 236 246 249 235 244 243 245 253 258 255 257 257 258 256 264 264 263 265 266 269 271 273 274 277 275 278 279 279 280 282 283 285 285 287 286 287 288 290 288
242 239 246 234 243 247 247 250 248 243 255 260 260 258 261 260 258 258 259 261 263 263 264 267 268 268 269 271 275 276 278 282 282 280 284 285 284 286 286 288 291 288 289
238 240 242 240 238 247 245 251 250 252 254 259 259 257 260 261 260 258 261 261 262 266 269 272 272 274 273 275 276 277 280 280 282 283 284 284 285 286 288 286 286 288 289
249 245 245 244 247 251 252 252 251 257 255 257 259 260 259 260 260 263 263 264 265 264 267 269 271 273 275 276 277 278 278 279 279 281 282 283 286 285 288 290 289 290 291
252 251 250 251 250 254 248 247 249 252 253 254 256 258 258 258 260 261 263 263 265 265 267 268 270 273 275 275 275 275 278 280 281 283 282 286 286 284 286 287 289 289 289
260 259 259 255 254 253 254 255 254 255 257 258 257 258 259 260 261 261 263 264 265 267 266 268 270 271 273 276 280 281 276 282 282 283 283 284 284 285 287 288 288 287 289
260 258 257 257 257 258 258 257 256 256 258 259 260 260 261 261 263 264 265 267 268 269 271 273 274 274 274 275 277 278 278 280 280 282 284 285 285 285 285 286 287 288 289